EHI
0 0 0 0 0 0 0 0 0 0 0 0 1 2 1 0 0 0 0 0 0 0 0 0 0 0 0 0 0 0 0 0 0 0 0 1 0 0 0 0 0 0 0
0 0 0 0 0 0 0 0 0 0 0 0 1 2 1 0 0 0 0 0 0 0 0 0 0 0 0 0 0 0 0 0 0 1 2 2 1 0 0 0 0 0 0
0 0 0 0 0 0 0 0 0 0 0 0 2 3 1 0 0 0 0 0 0 0 0 0 0 0 0 0 0 0 0 0 1 2 4 3 1 0 0 0 0 0 0
0 0 0 1 1 0 0 0 0 0 0 0 2 3 1 0 0 0 0 0 0 0 0 0 0 0 0 0 0 0 0 0 1 2 2 1 0 0 0 0 0 0 0
0 0 1 2 1 0 0 0 0 0 0 0 1 2 1 0 0 0 0 0 0 0 0 0 0 0 0 0 0 0 0 0 0 0 0 0 0 0 0 0 0 0 0
0 0 1 2 1 0 0 0 0 1 0 0 1 1 1 0 0 0 0 0 0 0 0 0 0 0 0 0 0 0 0 0 0 0 0 0 1 0 0 0 0 0 0
0 0 1 2 1 0 0 0 0 0 0 0 0 0 0 0 0 0 0 0 0 0 0 0 0 0 0 0 0 0 0 1 1 1 0 0 0 0 0 0 0 0 0
0 0 1 1 1 0 0 0 0 0 0 0 0 0 0 0 0 0 0 0 0 0 0 0 0 0 0 1 1 0 1 2 2 2 1 0 0 0 1 1 0 0 0
0 0 0 0 0 0 0 0 0 0 0 0 0 0 0 0 0 0 0 0 0 0 0 0 0 0 0 1 2 2 2 3 2 1 1 0 0 0 1 1 0 0 0
0 0 0 0 0 0 0 0 0 0 0 0 0 0 0 0 0 0 0 0 0 0 0 0 0 0 0 1 2 3 2 2 1 0 0 0 0 0 1 1 0 0 0
0 0 0 0 0 0 0 0 0 0 0 0 1 1 0 0 0 0 0 0 0 0 0 0 0 0 0 0 1 1 1 0 0 0 0 0 1 0 0 0 0 0 0
0 0 0 0 0 0 0 0 0 0 0 0 1 1 0 0 0 0 0 0 0 0 0 0 0 0 0 0 0 0 0 0 0 0 0 0 0 0 0 0 0 0 0
0 0 0 0 0 0 0 0 0 0 0 0 1 1 0 0 0 0 0 0 0 0 0 0 0 0 0 0 0 0 0 0 0 0 0 0 0 0 0 0 0 0 0
0 0 0 0 0 0 0 0 0 0 0 0 0 0 0 0 0 0 0 0 0 0 0 0 0 0 0 0 0 0 0 0 0 0 0 0 0 0 0 0 0 0 0
0 0 0 0 0 0 0 0 0 0 0 0 0 0 0 0 0 0 0 0 0 0 0 0 0 0 0 0 0 0 0 0 0 0 0 0 0 0 0 0 0 0 0
0 0 0 0 0 0 0 0 0 0 0 0 0 0 0 0 0 0 0 0 0 0 0 0 0 0 0 0 0 0 0 0 0 0 0 0 0 1 1 0 0 0 1
0 0 0 0 0 0 0 0 0 0 0 0 0 0 0 0 0 0 0 0 0 0 0 0 0 0 0 0 0 0 0 0 0 0 0 0 0 1 1 1 0 1 1
0 0 0 0 0 0 0 0 0 0 0 0 0 0 0 0 0 0 0 0 0 0 0 0 0 0 0 0 0 0 0 0 0 0 0 0 0 1 1 1 1 1 1
0 0 0 0 0 0 0 0 0 0 0 0 0 0 0 0 0 0 0 0 0 0 0 0 0 0 0 0 0 0 0 0 0 0 0 0 0 0 0 1 2 3 4
0 0 0 0 0 0 0 0 0 0 0 0 0 0 0 0 0 0 0 0 0 0 0 0 0 0 0 0 0 0 0 0 0 0 0 0 0 0 0 0 1 3 6
0 0 1 1 1 1 1 1 0 0 0 0 0 0 0 0 0 0 0 0 0 0 0 0 0 0 0 0 0 0 0 0 0 0 0 0 0 0 0 0 0 1 3
0 1 3 5 6 6 4 2 1 0 0 0 0 0 0 0 0 0 0 0 0 0 0 0 0 0 0 0 0 0 0 0 0 0 0 0 0 0 0 0 0 0 0
1 2 5 12 18 15 7 3 1 0 0 0 0 0 0 0 0 0 0 0 0 0 0 0 0 0 0 0 0 0 0 0 0 0 0 0 0 0 0 0 0 0 0
13 17 20 23 26 17 6 3 1 0 0 0 0 0 0 0 0 0 0 0 0 0 0 0 0 0 0 0 0 0 0 0 0 0 0 0 0 0 0 0 0 0 0
21 29 34 31 21 11 3 1 1 0 0 0 0 0 0 0 0 0 0 0 0 0 0 0 0 0 0 0 0 0 0 0 0 0 0 0 0 0 0 0 0 0 0
15 22 30 28 19 7 1 0 0 0 0 0 0 0 0 0 0 0 0 0 0 0 0 0 0 0 0 0 0 0 0 0 0 0 0 0 0 0 0 0 0 0 0
Wind_Speed
5 6 13 14 13 13 14 14 13 13 14 13 13 13 13 12 11 11 9 9 8 8 8 7 7 7 7 6 7 8 9 7 6 7 7 6 4 6 7 7 7 5 7
8 7 13 14 13 12 14 13 13 12 13 13 13 13 12 11 10 11 9 9 8 7 7 7 7 7 7 7 7 8 8 7 5 7 6 5 4 7 6 6 7 6 8
10 8 10 13 13 12 12 13 13 12 13 13 13 13 12 11 10 10 10 9 9 7 7 7 6 6 6 5 6 6 6 6 5 7 7 4 3 5 4 6 7 8 9
10 7 7 13 13 12 13 13 12 12 13 13 13 14 13 11 10 9 9 9 9 8 7 7 6 6 6 5 4 4 3 4 4 6 4 4 4 3 2 6 6 8 8
8 5 8 13 12 12 12 12 13 12 13 13 13 13 12 11 10 9 8 8 8 8 8 8 7 6 7 6 4 4 4 3 6 5 3 3 4 2 2 4 6 7 7
6 4 7 11 12 12 13 13 14 14 13 13 13 12 12 11 9 7 6 8 9 8 8 8 8 8 7 7 5 4 4 6 5 2 1 2 4 1 3 4 5 6 7
6 4 5 11 12 12 11 10 12 14 13 13 13 12 11 11 9 7 7 7 8 8 8 8 9 9 8 8 7 5 7 7 4 1 2 2 4 2 3 3 3 5 6
7 6 5 10 12 12 12 12 11 12 12 12 12 11 11 10 9 7 6 6 7 7 7 7 8 8 8 7 7 6 9 8 4 3 3 3 3 3 3 4 4 5 5
5 5 4 4 8 11 12 12 12 11 11 11 11 10 10 9 8 7 6 5 4 4 4 5 6 7 7 6 6 5 7 9 4 3 3 3 3 3 3 4 5 6 5
5 5 3 4 4 4 6 10 11 11 11 10 10 9 8 7 7 6 5 4 5 4 3 3 4 5 6 7 6 6 6 7 4 3 1 2 3 3 3 4 4 5 4
5 5 4 4 3 3 3 6 9 10 11 10 9 9 6 2 3 3 3 4 5 4 3 2 2 3 5 6 7 8 7 3 2 2 1 3 3 2 2 2 2 2 2
8 7 6 6 4 4 3 3 3 4 5 5 4 5 3 2 2 3 3 5 4 3 2 1 1 3 4 3 4 6 4 3 2 2 2 3 3 1 0 0 0 1 1
9 9 9 8 7 5 3 3 2 2 3 4 4 5 3 2 2 2 0 0 0 2 2 3 4 3 1 2 3 3 3 3 2 2 4 4 3 3 3 4 3 3 3
8 10 9 8 6 5 4 3 3 3 4 4 4 5 4 2 2 2 1 1 1 1 2 1 1 1 0 2 3 4 3 3 2 1 3 5 3 3 4 6 6 4 5
7 8 8 8 7 5 4 3 3 3 4 5 4 4 4 3 3 2 2 2 2 2 2 1 1 2 2 3 4 4 3 3 3 2 2 6 6 3 1 3 5 5 7
9 9 9 9 8 7 5 5 4 4 4 5 5 5 5 4 3 3 3 3 2 2 2 2 2 2 3 3 4 4 4 3 3 3 3 5 8 5 2 2 3 2 4
10 9 10 10 9 8 7 6 5 5 5 4 4 5 5 5 5 4 3 3 3 3 3 2 1 1 2 2 3 3 3 2 2 3 4 3 4 7 6 3 5 4 5
8 8 10 10 10 9 7 6 4 5 5 5 5 4 5 5 5 4 4 4 4 3 3 2 1 1 1 2 2 2 2 1 0 1 2 3 2 3 6 7 6 5 6
11 9 11 12 12 11 8 6 4 4 5 4 4 4 6 6 6 5 5 4 3 3 3 2 1 2 2 2 2 1 1 1 1 1 2 2 2 2 2 5 9 8 8
12 11 12 11 11 10 7 5 4 3 4 4 4 5 6 6 6 5 4 4 3 3 3 3 3 2 2 2 2 2 1 1 0 0 1 1 1 2 2 2 3 5 9
14 13 14 13 10 10 7 5 5 4 3 2 3 4 4 5 4 4 3 4 4 4 5 4 2 2 2 2 3 2 2 1 1 2 1 1 1 2 1 1 1 2 3
15 15 15 15 14 12 9 5 4 4 3 3 3 4 4 4 3 3 4 4 5 4 5 4 3 2 2 2 3 3 1 2 2 2 2 2 2 2 3 1 1 1 1
11 13 12 13 12 7 5 6 5 5 3 3 2 2 4 5 5 5 4 3 3 3 4 4 4 4 4 2 2 4 4 3 2 2 3 3 2 2 3 2 2 1 1
4 5 7 8 10 10 7 3 4 5 4 4 3 3 3 4 4 4 4 4 5 4 5 5 6 4 5 4 3 2 4 3 1 1 2 3 3 4 4 3 3 3 2
6 6 6 8 9 10 6 3 2 2 3 2 2 3 3 3 4 5 6 5 4 4 4 6 6 6 5 5 5 5 4 3 2 1 2 3 3 4 4 4 4 3 3
10 11 10 9 16 12 2 3 3 2 3 4 4 4 3 3 3 4 4 4 4 4 4 4 5 5 5 4 4 4 5 6 5 4 3 3 3 4 4 4 4 4 4
Wind_Direction
183 188 156 151 147 146 146 142 137 135 130 126 122 118 116 117 120 116 109 104 95 96 100 105 109 106 107 106 114 122 129 130 132 142 144 123 120 135 123 77 76 85 102
156 179 158 155 151 151 150 150 148 146 138 134 131 127 124 122 117 117 120 122 114 102 106 106 110 107 105 109 122 128 132 132 127 125 128 111 109 116 108 90 82 83 92
151 166 161 158 157 159 154 155 158 154 145 142 138 133 128 125 127 127 125 122 118 109 99 99 103 101 101 106 120 133 142 147 125 90 70 44 55 84 95 89 83 86 88
152 157 160 161 161 160 159 161 160 153 146 142 143 140 137 137 137 134 126 123 118 113 102 94 94 95 92 87 100 118 135 141 122 85 49 13 1 34 72 95 99 98 96
149 147 160 164 162 160 161 164 162 155 150 148 146 145 143 143 140 138 137 132 122 115 104 97 91 88 88 77 77 120 155 135 115 98 51 5 339 358 67 105 113 111 107
142 135 161 164 165 166 169 168 166 154 152 151 149 146 143 140 136 135 145 144 135 127 113 101 90 80 73 69 72 99 127 124 108 104 86 1 328 9 75 74 108 122 120
132 127 156 168 168 170 169 169 165 151 155 154 152 149 146 142 137 133 134 137 139 132 119 104 92 84 71 65 63 79 101 115 117 64 14 11 332 15 99 93 113 125 127
141 141 156 170 171 175 170 169 169 159 158 157 158 155 149 143 137 135 133 139 139 135 124 109 96 87 76 61 57 85 112 109 100 59 17 359 1 44 85 88 94 117 130
139 149 158 155 175 180 174 172 174 168 166 165 160 158 155 152 145 143 145 143 147 149 138 113 96 84 69 51 47 73 111 102 92 60 23 355 18 54 67 90 86 94 109
146 153 149 148 167 169 173 181 181 172 172 168 162 161 163 161 154 148 151 163 179 173 155 108 83 69 58 50 42 59 92 90 78 73 28 355 25 58 65 77 78 87 94
156 158 152 155 159 157 163 183 180 175 176 168 158 158 157 134 121 125 143 173 176 165 146 99 69 80 81 66 73 80 76 58 42 45 358 355 4 30 55 63 60 65 92
184 181 173 170 170 161 168 169 165 164 157 148 142 135 122 121 119 131 176 177 181 164 112 55 29 46 61 53 67 85 91 80 42 356 335 339 318 280 213 249 39 250 232
185 188 186 181 175 167 166 167 157 131 132 137 140 134 132 128 128 126 145 181 171 101 59 30 13 12 39 100 101 102 102 87 61 356 327 327 295 249 229 220 218 236 237
181 192 185 182 176 171 165 180 155 142 146 135 146 149 149 150 162 180 174 180 119 82 92 53 2 334 124 110 106 100 94 97 90 61 332 338 321 257 229 202 192 220 240
190 193 182 174 178 172 168 165 153 145 148 143 153 172 166 163 175 188 198 193 175 160 162 185 142 142 139 127 124 114 94 80 73 70 14 8 356 332 214 200 194 221 229
195 192 179 177 175 169 174 172 169 146 146 145 163 184 179 177 179 191 202 204 187 191 187 178 164 156 150 147 140 130 115 83 51 37 38 16 8 2 54 127 158 172 175
198 190 184 180 172 175 179 178 173 162 154 156 178 190 195 188 185 192 199 209 191 196 194 173 148 132 140 139 137 141 130 108 79 48 31 28 16 13 25 84 112 114 125
198 188 187 186 176 179 179 177 177 167 163 169 182 190 201 200 191 185 200 218 199 188 183 175 165 152 173 178 173 185 162 140 344 29 47 36 23 20 14 42 76 91 105
205 187 183 189 181 179 176 166 164 170 170 176 181 182 194 206 202 194 206 221 193 182 192 189 177 167 183 195 191 178 178 179 261 359 32 56 15 15 19 22 48 59 74
208 191 181 188 182 171 158 142 138 162 177 178 185 190 195 205 200 195 220 212 190 199 201 197 175 154 162 162 131 73 7 326 316 346 327 354 9 359 39 21 29 40 63
202 194 181 177 177 166 163 160 158 177 168 172 189 189 194 212 204 189 220 210 193 201 196 184 152 131 126 126 103 60 4 2 315 288 281 258 252 268 336 43 40 21 47
211 197 184 179 177 180 181 161 135 131 139 140 156 180 190 198 201 187 222 217 187 179 170 156 140 106 92 139 131 124 74 319 281 254 269 250 234 245 249 233 135 81 69
215 206 191 181 167 166 140 109 83 77 72 94 140 186 191 188 181 172 201 216 185 174 167 160 157 162 147 147 143 140 147 208 253 263 250 248 235 235 244 236 210 162 119
207 162 153 157 142 120 100 117 152 149 159 166 169 184 175 178 184 180 176 194 185 180 172 169 170 160 150 149 146 143 122 142 177 299 276 255 235 232 231 228 219 203 192
62 75 95 106 86 88 107 159 230 116 124 139 146 169 181 188 196 193 183 184 188 189 184 174 165 163 168 167 165 154 144 127 153 181 277 289 267 238 224 218 213 213 210
44 47 50 70 82 65 350 213 174 145 170 180 186 195 193 205 209 191 181 182 198 196 190 189 174 180 190 194 189 177 162 152 173 171 214 247 262 256 230 216 212 211 204